Fond du Lac, WI

2:54 PM CDT on September 25, 2016 (GMT -0500)
Fond du Lac County

Weather History for KFLD - January, 2013

Change the Weather History Date:

Wednesday, January 9, 2013

  Actual Average Record
Temperature  
Mean Temperature 29 °F -  
Max Temperature 37 °F 21 °F 50 °F (2002)
Min Temperature 19 °F 6 °F -32 °F (1977)
Degree Days  
Heating Degree Days 36    
Moisture  
Dew Point 23 °F    
Average Humidity 69    
Maximum Humidity 85    
Minimum Humidity 54    
Precipitation  
Precipitation 0.00 in - - ()
Sea Level Pressure  
Sea Level Pressure 30.17 in    
Wind  
Wind Speed 13 mph (WSW)    
Max Wind Speed 18 mph    
Max Gust Speed 28 mph    
Visibility 10 miles    
Events      
Averages and records for this station are not official NWS values.
T = Trace of Precipitation, MM = Missing Value Source: NWS Daily Summary

Daily Weather History Graph

Daily Weather History Graph

Search for Another Location

Airport or City:

Trip Planner

Search our weather history database for the weather conditions in past years. The results will help you decide how hot, cold, wet, or windy it might be!

Date:

Astronomy

Jan. 09, 2013 Rise Set
Actual Time 7:27 AM CST 4:35 PM CST
Civil Twilight 6:54 AM CST 5:08 PM CST
Nautical Twilight 6:18 AM CST 5:43 PM CST
Astronomical Twilight 5:44 AM CST 6:18 PM CST
Moon 5:06 AM CST (1/9) 2:37 PM CST (1/9)
Length of Visible Light 10h 13m
Length of Day
9h 08m
Waning Crescent, 6% of the Moon is Illuminated
Jan 9
Waning Crescent
Jan 11
New
Jan 18
First Quarter
Jan 26
Full
Feb 3
Last Quarter

Hourly Weather History & Observations

Time (CST) Temp. Windchill Dew Point Humidity Pressure Visibility Wind Dir Wind Speed Gust Speed Precip Events Conditions
12:53 AM 37.0 °F 27.0 °F 28.0 °F 70% 29.88 in 10.0 mi SSW 18.4 mph 27.6 mph N/A   Partly Cloudy
1:53 AM 37.0 °F 27.0 °F 28.9 °F 73% 29.89 in 10.0 mi SW 18.4 mph 27.6 mph N/A   Scattered Clouds
2:53 AM 37.0 °F 28.9 °F 28.9 °F 73% 29.91 in 10.0 mi WSW 12.7 mph 19.6 mph N/A   Clear
3:53 AM 35.1 °F 26.9 °F 27.0 °F 72% 29.95 in 10.0 mi West 11.5 mph 20.7 mph N/A   Scattered Clouds
4:03 AM 35.6 °F 27.1 °F 26.6 °F 70% 29.93 in 10.0 mi West 12.7 mph 21.9 mph N/A   Mostly Cloudy
4:42 AM 33.8 °F 25.8 °F 26.6 °F 75% 29.95 in 10.0 mi WSW 10.4 mph - N/A   Scattered Clouds
4:53 AM 33.1 °F 24.9 °F 26.1 °F 75% 29.98 in 10.0 mi WSW 10.4 mph - N/A   Clear
5:53 AM 32.0 °F 23.6 °F 26.1 °F 79% 30.01 in 10.0 mi SW 10.4 mph - N/A   Clear
6:53 AM 30.9 °F 22.2 °F 24.1 °F 76% 30.05 in 10.0 mi SW 10.4 mph - N/A   Clear
7:53 AM 28.9 °F 18.6 °F 23.0 °F 78% 30.05 in 10.0 mi SSW 12.7 mph - N/A   Clear
8:53 AM 32.0 °F 21.6 °F 24.1 °F 73% 30.08 in 10.0 mi SW 15.0 mph 23.0 mph N/A   Clear
9:53 AM 34.0 °F 24.6 °F 24.1 °F 67% 30.09 in 10.0 mi WSW 13.8 mph 21.9 mph N/A   Clear
10:53 AM 36.0 °F 26.3 °F 24.1 °F 62% 30.12 in 10.0 mi WSW 16.1 mph 25.3 mph N/A   Clear
11:53 AM 37.0 °F 27.0 °F 24.1 °F 59% 30.12 in 10.0 mi WSW 18.4 mph 27.6 mph N/A   Clear
12:53 PM 37.0 °F 28.9 °F 24.1 °F 59% 30.14 in 10.0 mi WSW 12.7 mph - N/A   Clear
1:53 PM 37.9 °F 29.2 °F 23.0 °F 55% 30.21 in 10.0 mi WSW 15.0 mph 23.0 mph N/A   Clear
2:53 PM 37.9 °F 29.2 °F 23.0 °F 55% 30.26 in 10.0 mi WSW 15.0 mph 23.0 mph N/A   Clear
3:53 PM 37.0 °F 28.9 °F 21.9 °F 54% 30.31 in 10.0 mi WSW 12.7 mph 20.7 mph N/A   Clear
4:53 PM 36.0 °F 29.0 °F 21.0 °F 55% 30.34 in 10.0 mi West 9.2 mph - N/A   Clear
5:53 PM 34.0 °F 24.6 °F 21.0 °F 59% 30.38 in 10.0 mi West 13.8 mph 20.7 mph N/A   Clear
6:53 PM 32.0 °F 28.7 °F 19.9 °F 61% 30.42 in 10.0 mi WSW 3.5 mph - N/A   Clear
7:53 PM 28.9 °F 25.2 °F 19.0 °F 67% 30.44 in 10.0 mi SW 3.5 mph - N/A   Clear
8:53 PM 21.9 °F 15.7 °F 16.0 °F 78% 30.46 in 10.0 mi South 4.6 mph - N/A   Clear
9:53 PM 23.0 °F 18.4 °F 17.1 °F 78% 30.45 in 10.0 mi SSW 3.5 mph - N/A   Clear
10:53 PM 23.0 °F - 16.0 °F 74% 30.45 in 10.0 mi Calm Calm - N/A   Clear
11:53 PM 19.0 °F - 15.1 °F 85% 30.43 in 10.0 mi Calm Calm - N/A   Clear